Weather History for Sturgis, MI

Change the Weather History Date:

Thursday, November 24, 2011

  Actual Average (KHAI) Record (KHAI)
Temperature  
Mean Temperature 38 °F -  
Max Temperature 44 °F 44 °F 62 °F (1973)
Min Temperature 32 °F 28 °F -4 °F (1950)
Degree Days  
Heating Degree Days 27    
Moisture  
Dew Point 37 °F    
Average Humidity 94    
Maximum Humidity 100    
Minimum Humidity 81    
Precipitation  
Precipitation 0.00 in - - ()
Sea Level Pressure  
Sea Level Pressure 30.20 in    
Wind  
Wind Speed 10 mph (SW)    
Max Wind Speed 17 mph    
Max Gust Speed 22 mph    
Visibility 4 miles    
Events Fog    
Averages and records for this station are not official NWS values.
T = Trace of Precipitation, MM = Missing Value Source: NWS Daily Summary

Daily Weather History Graph

Daily Weather History Graph

Search for Another Location

Airport:

Trip Planner

Search our weather history database for the weather conditions in past years. The results will help you decide how hot, cold, wet, or windy it might be!

Date:

Astronomy

Nov. 24, 2011 Rise Set
Actual Time 7:41 AM EST 5:14 PM EST
Civil Twilight 7:11 AM EST 5:45 PM EST
Nautical Twilight 6:36 AM EST 6:19 PM EST
Astronomical Twilight 6:03 AM EST 6:52 PM EST
Moon 6:58 AM EST (11/24) 4:44 PM EST (11/24)
Length of Visible Light 10h 34m
Length of Day
9h 33m
Waning Crescent, 0% of the Moon is Illuminated
Nov 24
Waning Crescent
Nov 25
New
Dec 2
First Quarter
Dec 10
Full
Dec 17
Last Quarter

Hourly Weather History & Observations

Time (EST) Temp. Windchill Dew Point Humidity Pressure Visibility Wind Dir Wind Speed Gust Speed Precip Events Conditions
12:15 AM 33.8 °F 28.6 °F 32.0 °F 93% 30.22 in 1.5 mi SW 5.8 mph - N/A   Mist
12:35 AM 32.0 °F 26.4 °F 32.0 °F 100% 30.22 in 1.8 mi SW 5.8 mph - N/A   Mist
12:54 AM 33.8 °F 27.7 °F 32.0 °F 93% 30.21 in 1.8 mi SW 6.9 mph - N/A   Mist
1:15 AM 33.8 °F 27.7 °F 32.0 °F 93% 30.21 in 2.0 mi SW 6.9 mph - N/A   Clear
1:34 AM 33.8 °F 27.0 °F 33.8 °F 100% 30.20 in 2.0 mi SW 8.1 mph - N/A   Clear
1:54 AM 33.8 °F 27.7 °F 33.8 °F 100% 30.20 in 1.8 mi SW 6.9 mph - N/A   Mist
2:15 AM 33.8 °F 27.7 °F 33.8 °F 100% 30.20 in 2.0 mi SW 6.9 mph - N/A   Clear
2:34 AM 33.8 °F 27.0 °F 33.8 °F 100% 30.20 in 1.8 mi SW 8.1 mph - N/A   Mist
2:55 AM 33.8 °F 27.7 °F 33.8 °F 100% 30.20 in 1.8 mi SW 6.9 mph - N/A   Mist
3:15 AM 33.8 °F 28.6 °F 33.8 °F 100% 30.21 in 1.8 mi SW 5.8 mph - N/A   Mist
3:34 AM 33.8 °F 29.6 °F 33.8 °F 100% 30.21 in 1.8 mi SW 4.6 mph - N/A   Mist
4:15 AM 35.6 °F 28.6 °F 35.6 °F 100% 30.21 in 0.5 mi WSW 9.2 mph - N/A Fog Fog
4:34 AM 35.6 °F 28.6 °F 35.6 °F 100% 30.21 in 0.2 mi WSW 9.2 mph - N/A Fog Fog
5:15 AM 37.4 °F 30.3 °F 35.6 °F 93% 30.21 in 0.2 mi WSW 10.4 mph - N/A Fog Fog
5:34 AM 37.4 °F 29.8 °F 35.6 °F 93% 30.21 in 0.8 mi WSW 11.5 mph 18.4 mph N/A   Overcast
5:55 AM 37.4 °F 30.8 °F 35.6 °F 93% 30.21 in 0.8 mi SW 9.2 mph - N/A   Overcast
6:14 AM 37.4 °F 28.2 °F 35.6 °F 93% - 1.0 mi WSW 16.1 mph - N/A   Overcast
6:55 AM 35.6 °F 27.1 °F 35.6 °F 100% - 1.5 mi WSW 12.7 mph - N/A   Overcast
7:15 AM 35.6 °F 28.0 °F 35.6 °F 100% 30.23 in 1.0 mi WSW 10.4 mph - N/A   Overcast
7:35 AM 35.6 °F 28.0 °F 35.6 °F 100% 30.23 in 1.2 mi WSW 10.4 mph - N/A   Overcast
7:55 AM 37.4 °F 29.3 °F 35.6 °F 93% 30.24 in 1.5 mi WSW 12.7 mph 16.1 mph N/A   Overcast
8:35 AM 37.4 °F 29.8 °F 37.4 °F 100% 30.24 in 3.0 mi WSW 11.5 mph 18.4 mph N/A   Overcast
8:55 AM 37.4 °F 29.3 °F 37.4 °F 100% 30.24 in 1.8 mi SW 12.7 mph 17.3 mph N/A   Overcast
9:15 AM 37.4 °F 28.5 °F 37.4 °F 100% 30.24 in 2.5 mi SW 15.0 mph - N/A   Overcast
9:35 AM 37.4 °F 30.3 °F 37.4 °F 100% 30.24 in 3.0 mi SW 10.4 mph 19.6 mph N/A   Overcast
9:54 AM 39.2 °F 31.2 °F 37.4 °F 93% 30.24 in 4.0 mi SW 13.8 mph - N/A   Overcast
10:35 AM 39.2 °F 31.6 °F 39.2 °F 100% 30.25 in 5.0 mi SW 12.7 mph - N/A   Overcast
10:54 AM 39.2 °F 30.8 °F 39.2 °F 100% 30.25 in 4.0 mi SW 15.0 mph 20.7 mph N/A   Overcast
11:34 AM 39.2 °F 30.8 °F 39.2 °F 100% 30.25 in 5.0 mi SW 15.0 mph 21.9 mph N/A   Overcast
11:55 AM 41.0 °F 34.3 °F 39.2 °F 93% 30.24 in 7.0 mi SW 11.5 mph - N/A   Overcast
12:15 PM 41.0 °F 33.1 °F 39.2 °F 93% 30.23 in 5.0 mi SSW 15.0 mph - N/A   Overcast
12:35 PM 41.0 °F 33.1 °F 39.2 °F 93% 30.23 in 7.0 mi SW 15.0 mph - N/A   Overcast
12:55 PM 42.8 °F 35.8 °F 39.2 °F 87% 30.22 in 5.0 mi SSW 13.8 mph 19.6 mph N/A   Overcast
1:14 PM 42.8 °F 35.4 °F 39.2 °F 87% 30.21 in 4.0 mi SSW 15.0 mph - N/A   Overcast
1:35 PM 42.8 °F 35.1 °F 39.2 °F 87% 30.21 in 5.0 mi SSW 16.1 mph 20.7 mph N/A   Overcast
1:55 PM 42.8 °F 35.1 °F 39.2 °F 87% 30.21 in 5.0 mi SSW 16.1 mph - N/A   Overcast
2:14 PM 42.8 °F 36.2 °F 39.2 °F 87% 30.20 in 5.0 mi SW 12.7 mph - N/A   Overcast
2:35 PM 44.6 °F 38.1 °F 41.0 °F 87% 30.19 in 5.0 mi SSW 13.8 mph 19.6 mph N/A   Overcast
3:14 PM 44.6 °F 37.8 °F 41.0 °F 87% 30.18 in 5.0 mi SW 15.0 mph - N/A   Overcast
3:35 PM 44.6 °F 37.2 °F 39.2 °F 81% 30.17 in 7.0 mi SSW 17.3 mph 20.7 mph N/A   Overcast
3:54 PM 44.6 °F 38.8 °F 41.0 °F 87% 30.17 in 7.0 mi SW 11.5 mph - N/A   Overcast
4:15 PM 44.6 °F 38.1 °F 41.0 °F 87% 30.17 in 7.0 mi SSW 13.8 mph 17.3 mph N/A   Overcast
4:35 PM 44.6 °F 37.8 °F 39.2 °F 81% 30.17 in 7.0 mi SW 15.0 mph 20.7 mph N/A   Overcast
4:55 PM 44.6 °F 38.4 °F 39.2 °F 81% 30.16 in 7.0 mi SSW 12.7 mph - N/A   Overcast
5:15 PM 42.8 °F 36.6 °F 39.2 °F 87% 30.16 in 10.0 mi SSW 11.5 mph 16.1 mph N/A   Overcast
5:55 PM 42.8 °F 37.5 °F 39.2 °F 87% 30.16 in 7.0 mi SSW 9.2 mph 18.4 mph N/A   Overcast
6:15 PM 42.8 °F 37.0 °F 39.2 °F 87% 30.17 in 7.0 mi SSW 10.4 mph - N/A   Mostly Cloudy
6:34 PM 42.8 °F 37.5 °F 39.2 °F 87% 30.17 in 7.0 mi SSW 9.2 mph - N/A   Mostly Cloudy
6:55 PM 42.8 °F 37.5 °F 39.2 °F 87% 30.17 in 7.0 mi SSW 9.2 mph - N/A   Overcast
7:14 PM 41.0 °F 35.8 °F 39.2 °F 93% 30.16 in 5.0 mi SSW 8.1 mph - N/A   Scattered Clouds
8:35 PM 41.0 °F 33.9 °F 39.2 °F 93% 30.15 in 5.0 mi SSW 12.7 mph - N/A   Scattered Clouds
8:55 PM 41.0 °F 34.7 °F 39.2 °F 93% 30.14 in 5.0 mi SSW 10.4 mph - N/A   Scattered Clouds
9:35 PM 39.2 °F 33.6 °F 39.2 °F 100% 30.14 in 5.0 mi SW 8.1 mph - N/A   Clear
9:55 PM 39.2 °F 33.0 °F 37.4 °F 93% 30.14 in 5.0 mi SSW 9.2 mph - N/A   Clear
10:14 PM 39.2 °F 33.0 °F 39.2 °F 100% 30.13 in 5.0 mi SSW 9.2 mph - N/A   Clear
10:35 PM 39.2 °F 33.0 °F 37.4 °F 93% 30.13 in 5.0 mi SSW 9.2 mph - N/A   Clear
10:54 PM 39.2 °F 32.5 °F 37.4 °F 93% 30.12 in 5.0 mi SSW 10.4 mph - N/A   Clear
11:15 PM 39.2 °F 32.0 °F 37.4 °F 93% 30.12 in 5.0 mi SSW 11.5 mph - N/A   Clear
11:35 PM 39.2 °F 32.0 °F 37.4 °F 93% 30.12 in 5.0 mi SSW 11.5 mph - N/A   Clear